Buckeye, AZ

1:56 PM MST on May 26, 2018 (GMT -0700)
Buckeye Municipal

Weather History for KBXK - January, 2013

Change the Weather History Date:

Thursday, January 10, 2013

  Actual Average (KGYR) Record (KGYR)
Temperature  
Mean Temperature 47 °F -  
Max Temperature 57 °F 65 °F 78 °F (2004)
Min Temperature 37 °F 40 °F 35 °F (1997)
Degree Days  
Heating Degree Days 18    
Moisture  
Dew Point 25 °F    
Average Humidity 41    
Maximum Humidity 61    
Minimum Humidity 27    
Precipitation  
Precipitation 0.00 in - - ()
Sea Level Pressure  
Sea Level Pressure 29.88 in    
Wind  
Wind Speed 7 mph (SE)    
Max Wind Speed 23 mph    
Max Gust Speed 28 mph    
Visibility 9 miles    
Events      
Averages and records for this station are not official NWS values.
T = Trace of Precipitation, MM = Missing Value Source: NWS Daily Summary

Daily Weather History Graph

Daily Weather History Graph

Search for Another Location

Airport or City:

Astronomy

Jan. 10, 2013 Rise Set
Actual Time 7:35 AM MST 5:41 PM MST
Civil Twilight 7:08 AM MST 6:08 PM MST
Nautical Twilight 6:37 AM MST 6:39 PM MST
Astronomical Twilight 6:07 AM MST 7:09 PM MST
Moon 6:19 AM MST (1/10) 4:53 PM MST (1/10)
Length of Visible Light 11h 00m
Length of Day
10h 06m
Waning Crescent, 2% of the Moon is Illuminated
Jan 10
Waning Crescent
Jan 11
New
Jan 18
First Quarter
Jan 26
Full
Feb 3
Last Quarter

Hourly Weather History & Observations

Time (MST) Temp. Windchill Dew Point Humidity Pressure Visibility Wind Dir Wind Speed Gust Speed Precip Events Conditions
1:15 AM 39.2 °F 37.0 °F 23.0 °F 52% 29.98 in 7.0 mi NNW 3.5 mph - N/A   Partly Cloudy
1:35 AM 39.2 °F 35.0 °F 19.4 °F 45% 29.97 in 10.0 mi North 5.8 mph - N/A   Partly Cloudy
1:55 AM 39.2 °F 35.9 °F 19.4 °F 45% 29.97 in 10.0 mi NNW 4.6 mph - N/A   Scattered Clouds
2:15 AM 39.2 °F 35.0 °F 19.4 °F 45% 29.97 in 9.0 mi North 5.8 mph - N/A   Mostly Cloudy
2:35 AM 39.2 °F - 19.4 °F 45% 29.97 in 10.0 mi Calm Calm - N/A   Overcast
2:55 AM 39.2 °F 37.0 °F 21.2 °F 49% 29.96 in 9.0 mi East 3.5 mph - N/A   Overcast
3:15 AM 39.2 °F - 19.4 °F 45% 29.96 in 10.0 mi Calm Calm - N/A   Mostly Cloudy
3:55 AM 39.2 °F - 21.2 °F 49% 29.94 in 10.0 mi Calm Calm - N/A   Partly Cloudy
4:15 AM 41.0 °F 37.1 °F 24.8 °F 53% 29.92 in 10.0 mi ESE 5.8 mph - N/A   Partly Cloudy
4:35 AM 42.8 °F 38.0 °F 28.4 °F 57% 29.92 in 10.0 mi East 8.1 mph - N/A   Mostly Cloudy
4:55 AM 41.0 °F 35.8 °F 28.4 °F 61% 29.91 in 10.0 mi East 8.1 mph - N/A   Mostly Cloudy
5:15 AM 46.4 °F 41.5 °F 26.6 °F 46% 29.91 in 10.0 mi East 10.4 mph - N/A   Scattered Clouds
5:35 AM 44.6 °F - 24.8 °F 46% 29.91 in 10.0 mi Calm Calm - N/A   Partly Cloudy
5:55 AM 37.4 °F 32.8 °F 21.2 °F 52% 29.92 in 10.0 mi NW 5.8 mph - N/A   Partly Cloudy
6:15 AM 39.2 °F 34.2 °F 19.4 °F 45% 29.93 in 10.0 mi WNW 6.9 mph - N/A   Clear
6:35 AM 39.2 °F 33.6 °F 19.4 °F 45% 29.94 in 10.0 mi NW 8.1 mph - N/A   Partly Cloudy
6:55 AM 39.2 °F 33.0 °F 21.2 °F 49% 29.95 in 7.0 mi NNW 9.2 mph - N/A   Partly Cloudy
7:55 AM 44.6 °F 42.2 °F 23.0 °F 43% 29.94 in 10.0 mi NNE 4.6 mph - N/A   Clear
8:35 AM 41.0 °F 35.8 °F 28.4 °F 61% 29.92 in 7.0 mi ESE 8.1 mph - N/A   Clear
8:55 AM 44.6 °F 39.7 °F 28.4 °F 53% 29.92 in 10.0 mi East 9.2 mph - N/A   Clear
9:15 AM 50.0 °F - 26.6 °F 40% 29.92 in 10.0 mi East 16.1 mph 20.7 mph N/A   Clear
9:35 AM 50.0 °F - 24.8 °F 37% 29.92 in 10.0 mi East 13.8 mph 19.6 mph N/A   Clear
9:55 AM 53.6 °F - 24.8 °F 33% 29.92 in 10.0 mi East 15.0 mph - N/A   Clear
10:15 AM 55.4 °F - 24.8 °F 31% 29.91 in 10.0 mi East 13.8 mph - N/A   Clear
10:55 AM 55.4 °F - 23.0 °F 29% 29.89 in 10.0 mi East 13.8 mph - N/A   Clear
11:55 AM 55.4 °F - 23.0 °F 29% 29.86 in 10.0 mi East 13.8 mph - N/A   Clear
12:15 PM 55.4 °F - 23.0 °F 29% 29.86 in 10.0 mi East 11.5 mph 17.3 mph N/A   Clear
12:35 PM 57.2 °F - 23.0 °F 27% 29.84 in 10.0 mi East 11.5 mph 17.3 mph N/A   Clear
12:55 PM 57.2 °F - 23.0 °F 27% 29.83 in 10.0 mi East 8.1 mph - N/A   Clear
1:15 PM 57.2 °F - 23.0 °F 27% 29.83 in 10.0 mi East 6.9 mph - N/A   Clear
1:35 PM 57.2 °F - 24.8 °F 29% 29.81 in - East 5.8 mph - N/A   Unknown
1:55 PM 57.2 °F - 26.6 °F 31% 29.81 in 10.0 mi ESE 3.5 mph - N/A   Clear
2:15 PM 55.4 °F - 28.4 °F 36% 29.81 in 9.0 mi SE 3.5 mph - N/A   Clear
2:35 PM 55.4 °F - 28.4 °F 36% 29.82 in 7.0 mi South 4.6 mph - N/A   Clear
2:55 PM 53.6 °F - 32.0 °F 44% 29.82 in 7.0 mi South 3.5 mph - N/A   Clear
3:15 PM 53.6 °F - 32.0 °F 44% 29.81 in 8.0 mi SW 3.5 mph - N/A   Clear
3:35 PM 53.6 °F - 32.0 °F 44% 29.82 in 6.0 mi Calm Calm - N/A   Clear
3:55 PM 53.6 °F - 32.0 °F 44% 29.82 in 5.0 mi Calm Calm - N/A   Clear
4:15 PM 55.4 °F - 32.0 °F 41% 29.82 in 7.0 mi WNW 3.5 mph - N/A   Clear
4:35 PM 53.6 °F - 32.0 °F 44% 29.82 in 7.0 mi Calm Calm - N/A   Clear
4:55 PM 55.4 °F - 32.0 °F 41% 29.82 in 8.0 mi Calm Calm - N/A   Clear
5:15 PM 53.6 °F - 32.0 °F 44% 29.81 in 4.0 mi SE 3.5 mph - N/A   Clear
5:35 PM 51.8 °F - 32.0 °F 47% 29.81 in 5.0 mi SSE 4.6 mph - N/A   Clear
5:55 PM 51.8 °F - 32.0 °F 47% 29.80 in 4.0 mi South 4.6 mph - N/A   Clear
6:15 PM 50.0 °F - 30.2 °F 47% 29.80 in 6.0 mi SSE 4.6 mph - N/A   Mostly Cloudy
6:35 PM 50.0 °F - 30.2 °F 47% 29.80 in 5.0 mi SSE 3.5 mph - N/A   Overcast
7:15 PM 51.8 °F - 32.0 °F 47% 29.80 in 10.0 mi West 5.8 mph - N/A   Overcast
7:35 PM 53.6 °F - 32.0 °F 44% 29.80 in 10.0 mi WSW 12.7 mph - N/A   Overcast
7:55 PM 53.6 °F - 30.2 °F 41% 29.80 in 8.0 mi SW 9.2 mph - N/A   Overcast
8:15 PM 53.6 °F - 28.4 °F 38% 29.81 in 8.0 mi WSW 10.4 mph - N/A   Overcast
8:35 PM 53.6 °F - 23.0 °F 30% 29.82 in 5.0 mi WNW 23.0 mph 26.5 mph N/A   Overcast
8:55 PM 51.8 °F - 23.0 °F 33% 29.83 in 5.0 mi West 18.4 mph 27.6 mph N/A   Overcast
9:15 PM 51.8 °F - 19.4 °F 28% 29.85 in 8.0 mi WNW 17.3 mph 25.3 mph N/A   Overcast
9:35 PM 50.0 °F - 19.4 °F 30% 29.85 in 8.0 mi West 21.9 mph 26.5 mph N/A   Overcast
9:55 PM 50.0 °F - 19.4 °F 30% 29.86 in 10.0 mi West 18.4 mph 25.3 mph N/A   Overcast
10:15 PM 50.0 °F - 19.4 °F 30% 29.88 in 10.0 mi West 16.1 mph - N/A   Overcast
10:35 PM 50.0 °F - 21.2 °F 32% 29.89 in 10.0 mi West 13.8 mph 20.7 mph N/A   Overcast
10:55 PM 50.0 °F - 21.2 °F 32% 29.90 in 10.0 mi WSW 15.0 mph 21.9 mph N/A   Overcast
11:15 PM 48.2 °F - 21.2 °F 34% 29.91 in 10.0 mi WSW 11.5 mph - N/A   Overcast
11:35 PM 48.2 °F - 23.0 °F 37% 29.92 in 10.0 mi West 15.0 mph 21.9 mph N/A   Mostly Cloudy
11:55 PM 46.4 °F 40.7 °F 23.0 °F 40% 29.92 in 10.0 mi West 12.7 mph - N/A   Partly Cloudy